Location: Cartignies
(50.0929°N, 3.8447°E)
Time: 13:41:24
(UTC+00:00)

SPOT 1/Viking Rocket - Pass Details

Date: 12 January 2026
Orbit: 772 x 789 km, 98.2° (Epoch: 16 February)

Event Time Altitude Azimuth Distance (km) Brightness Sun altitude
Rises 16:58:02 0° 142° (SE) 3,262 6.6 -8.1°
Reaches altitude 10° 17:00:27 10° 135° (SE) 2,335 5.8 -8.4°
Maximum altitude 17:05:16 42° 66° (ENE) 1,114 3.9 -9.1°
Drops below altitude 10° 17:10:05 10° 358° (N) 2,339 5.8 -9.8°
Sets 17:12:30 0° 351° (N) 3,269 6.6 -10.2°
